START_TIME,STEP,MOV.,M34,t_acc.,L5,t_acc.,L18,t_acc.,L14,t_acc.
1979-07-24 12:00:24.180 ,0,0,0.,12.0,0.,12.0,0.,12.0,0.,12.0
1979-07-24 12:00:36.180 ,0,0,2.,12.0,0.,12.0,0.,12.0,0.,12.0
1979-07-24 12:00:48.180 ,1,1,0.,12.0,0.,12.0,0.,12.0,0.,12.0
1979-07-24 12:01:00.180 ,1,1,0.,12.0,0.,12.0,0.,12.0,0.,12.0
1979-07-24 12:01:12.180 ,1,0,0.,12.0,0.,12.0,0.,12.0,0.,12.0
1979-07-24 12:01:24.180 ,1,0,0.,12.0,0.,12.0,0.,12.0,0.,12.0
1979-07-24 12:01:36.180 ,2,1,0.,12.0,0.,12.0,0.,12.0,0.,12.0
1979-07-24 12:01:48.180 ,2,1,0.,12.0,0.,12.0,0.,12.0,0.,12.0
1979-07-24 12:02:00.180 ,2,0,0.,12.0,0.,12.0,0.,12.0,0.,12.0
1979-07-24 12:02:12.180 ,2,0,0.,12.0,0.,12.0,0.,12.0,0.,12.0
1979-07-24 12:02:24.180 ,3,1,0.,12.0,0.,12.0,0.,12.0,0.,12.0
1979-07-24 12:02:36.180 ,3,1,0.,12.0,0.,12.0,0.,12.0,0.,12.0
1979-07-24 12:02:48.180 ,3,0,0.,12.0,0.,12.0,0.,12.0,0.,12.0
1979-07-24 12:03:00.180 ,3,0,0.,12.0,0.,12.0,0.,12.0,0.,12.0
1979-07-24 12:03:12.180 ,4,1,0.,12.0,0.,12.0,0.,12.0,0.,12.0
1979-07-24 12:03:24.180 ,4,1,0.,12.0,0.,12.0,0.,12.0,0.,12.0
1979-07-24 12:03:36.180 ,4,0,0.,12.0,0.,12.0,0.,12.0,0.,12.0
1979-07-24 12:03:48.180 ,4,0,0.,12.0,0.,12.0,0.,12.0,0.,12.0
1979-07-24 12:04:00.180 ,5,1,0.,12.0,0.,12.0,0.,12.0,0.,12.0
1979-07-24 12:04:12.180 ,5,1,0.,12.0,0.,12.0,0.,12.0,0.,12.0
1979-07-24 12:04:24.180 ,5,0,0.,12.0,0.,12.0,0.,12.0,0.,12.0
1979-07-24 12:04:36.180 ,5,0,0.,12.0,0.,12.0,0.,12.0,0.,12.0
1979-07-24 12:04:48.180 ,6,1,0.,12.0,0.,12.0,0.,12.0,0.,12.0
1979-07-24 12:05:00.180 ,6,1,0.,12.0,0.,12.0,0.,12.0,0.,12.0
1979-07-24 12:05:12.180 ,6,0,0.,12.0,0.,12.0,0.,12.0,0.,12.0
1979-07-24 12:05:24.180 ,6,0,0.,12.0,0.,12.0,0.,12.0,0.,12.0
1979-07-24 12:05:36.180 ,7,1,0.,12.0,0.,12.0,0.,12.0,0.,12.0
1979-07-24 12:05:48.180 ,7,1,0.,12.0,0.,12.0,0.,12.0,0.,12.0
1979-07-24 12:06:00.180 ,7,0,0.,12.0,0.,12.0,0.,12.0,0.,12.0
1979-07-24 12:06:12.180 ,7,0,0.,12.0,0.,12.0,0.,12.0,0.,12.0
1979-07-24 12:06:24.180 ,7,1,0.,12.0,0.,12.0,0.,12.0,0.,12.0
1979-07-24 12:06:36.180 ,7,1,0.,12.0,0.,12.0,0.,12.0,0.,12.0
1979-07-24 12:06:48.180 ,7,0,0.,12.0,0.,12.0,0.,12.0,0.,12.0
1979-07-24 12:07:00.180 ,7,0,0.,12.0,0.,12.0,0.,12.0,0.,12.0
1979-07-24 12:07:12.180 ,6,1,0.,12.0,0.,12.0,0.,12.0,0.,12.0
1979-07-24 12:07:24.180 ,6,1,0.,12.0,0.,12.0,0.,12.0,0.,12.0
1979-07-24 12:07:36.180 ,6,0,0.,12.0,0.,12.0,0.,12.0,0.,12.0
1979-07-24 12:07:48.180 ,6,0,1.,12.0,0.,12.0,0.,12.0,0.,12.0
1979-07-24 12:08:00.180 ,5,1,0.,12.0,0.,12.0,0.,12.0,0.,12.0
1979-07-24 12:08:12.180 ,5,1,0.,12.0,0.,12.0,0.,12.0,0.,12.0
1979-07-24 12:08:24.180 ,5,0,0.,12.0,0.,12.0,0.,12.0,0.,12.0
1979-07-24 12:08:36.180 ,5,0,0.,12.0,0.,12.0,0.,12.0,0.,12.0
1979-07-24 12:08:48.180 ,4,1,0.,12.0,0.,12.0,0.,12.0,0.,12.0
1979-07-24 12:09:00.180 ,4,1,0.,12.0,0.,12.0,0.,12.0,0.,12.0
1979-07-24 12:09:12.180 ,4,0,0.,12.0,0.,12.0,0.,12.0,0.,12.0
1979-07-24 12:09:24.180 ,4,0,0.,12.0,0.,12.0,0.,12.0,0.,12.0
1979-07-24 12:09:36.180 ,3,1,0.,12.0,0.,12.0,0.,12.0,0.,12.0
1979-07-24 12:09:48.180 ,3,1,0.,12.0,0.,12.0,0.,12.0,0.,12.0
1979-07-24 12:10:00.180 ,3,0,0.,12.0,0.,12.0,0.,12.0,0.,12.0
1979-07-24 12:10:12.180 ,3,0,0.,12.0,0.,12.0,0.,12.0,0.,12.0
1979-07-24 12:10:24.180 ,2,1,0.,12.0,0.,12.0,0.,12.0,0.,12.0
1979-07-24 12:10:36.180 ,2,1,0.,12.0,0.,12.0,0.,12.0,0.,12.0
1979-07-24 12:10:48.180 ,2,0,0.,12.0,0.,12.0,0.,12.0,0.,12.0
1979-07-24 12:11:00.180 ,2,0,0.,12.0,0.,12.0,0.,12.0,0.,12.0
1979-07-24 12:11:12.180 ,1,1,0.,12.0,0.,12.0,0.,12.0,0.,12.0
1979-07-24 12:11:24.180 ,1,1,1.,12.0,0.,12.0,0.,12.0,0.,12.0
1979-07-24 12:11:36.180 ,1,0,0.,12.0,0.,12.0,0.,12.0,0.,12.0
1979-07-24 12:11:48.180 ,1,0,0.,12.0,0.,12.0,0.,12.0,0.,12.0
1979-07-24 12:12:00.180 ,0,1,0.,12.0,0.,12.0,0.,12.0,0.,12.0
1979-07-24 12:12:12.180 ,0,1,0.,12.0,0.,12.0,0.,12.0,0.,12.0
1979-07-24 12:12:24.180 ,0,0,1.,12.0,0.,12.0,0.,12.0,0.,12.0
1979-07-24 12:12:36.180 ,0,0,0.,12.0,0.,12.0,0.,12.0,0.,12.0
1979-07-24 12:12:48.180 ,0,1,1.,12.0,0.,12.0,0.,12.0,0.,12.0
1979-07-24 12:13:00.180 ,0,1,0.,12.0,0.,12.0,0.,12.0,0.,12.0
1979-07-24 12:13:12.180 ,0,0,0.,12.0,0.,12.0,0.,12.0,0.,12.0
1979-07-24 12:13:24.180 ,0,0,0.,12.0,0.,12.0,0.,12.0,0.,12.0
1979-07-24 12:13:36.180 ,1,1,0.,12.0,0.,12.0,0.,12.0,0.,12.0
1979-07-24 12:13:48.180 ,1,1,0.,12.0,0.,12.0,0.,12.0,0.,12.0
1979-07-24 12:14:00.180 ,1,0,0.,12.0,0.,12.0,0.,12.0,0.,12.0
1979-07-24 12:14:12.180 ,1,0,0.,12.0,0.,12.0,0.,12.0,0.,12.0
1979-07-24 12:14:24.180 ,2,1,0.,12.0,0.,12.0,0.,12.0,0.,12.0
1979-07-24 12:14:36.180 ,2,1,0.,12.0,0.,12.0,0.,12.0,0.,12.0
1979-07-24 12:14:48.180 ,2,0,0.,12.0,0.,12.0,0.,12.0,0.,12.0
1979-07-24 12:15:00.180 ,2,0,0.,12.0,0.,12.0,0.,12.0,0.,12.0
1979-07-24 12:15:12.180 ,3,1,0.,12.0,0.,12.0,0.,12.0,0.,12.0
1979-07-24 12:15:24.180 ,3,1,0.,12.0,0.,12.0,0.,12.0,0.,12.0
1979-07-24 12:15:36.180 ,3,0,0.,12.0,0.,12.0,0.,12.0,0.,12.0
1979-07-24 12:15:48.180 ,3,0,0.,12.0,0.,12.0,0.,12.0,0.,12.0
1979-07-24 12:16:00.180 ,4,1,0.,12.0,0.,12.0,0.,12.0,0.,12.0
1979-07-24 12:16:12.180 ,4,1,0.,12.0,0.,12.0,0.,12.0,0.,12.0
1979-07-24 12:16:24.180 ,4,0,0.,12.0,0.,12.0,0.,12.0,0.,12.0
1979-07-24 12:16:36.180 ,4,0,0.,12.0,0.,12.0,0.,12.0,0.,12.0
1979-07-24 12:16:48.180 ,5,1,0.,12.0,0.,12.0,0.,12.0,0.,12.0
1979-07-24 12:17:00.180 ,5,1,0.,12.0,0.,12.0,0.,12.0,0.,12.0
1979-07-24 12:17:12.180 ,5,0,0.,12.0,0.,12.0,0.,12.0,0.,12.0
1979-07-24 12:17:24.180 ,5,0,0.,12.0,0.,12.0,0.,12.0,0.,12.0
1979-07-24 12:17:36.180 ,6,1,0.,12.0,0.,12.0,0.,12.0,0.,12.0
1979-07-24 12:17:48.180 ,6,1,0.,12.0,0.,12.0,0.,12.0,0.,12.0
1979-07-24 12:18:00.180 ,6,0,0.,12.0,0.,12.0,0.,12.0,0.,12.0
1979-07-24 12:18:12.180 ,6,0,0.,12.0,0.,12.0,0.,12.0,0.,12.0
1979-07-24 12:18:24.180 ,7,0,0.,12.0,0.,12.0,0.,12.0,0.,12.0
1979-07-24 12:18:36.180 ,7,0,0.,12.0,0.,12.0,0.,12.0,0.,12.0
1979-07-24 12:18:48.180 ,7,0,0.,12.0,0.,12.0,0.,12.0,0.,12.0
1979-07-24 12:19:00.180 ,7,0,0.,12.0,0.,12.0,0.,12.0,0.,12.0
1979-07-24 12:19:12.180 ,4,1,0.,12.0,0.,12.0,0.,12.0,0.,12.0
1979-07-24 12:19:24.180 ,4,1,0.,12.0,0.,12.0,0.,12.0,0.,12.0
1979-07-24 12:19:36.180 ,0,1,0.,12.0,0.,12.0,0.,12.0,0.,12.0
1979-07-24 12:19:48.180 ,0,1,0.,12.0,0.,12.0,0.,12.0,0.,12.0
1979-07-24 12:20:00.180 ,3,1,0.,12.0,0.,12.0,0.,12.0,0.,12.0
1979-07-24 12:20:12.180 ,3,1,0.,12.0,0.,12.0,0.,12.0,0.,12.0
1979-07-24 12:20:24.180 ,7,1,0.,12.0,0.,12.0,0.,12.0,0.,12.0
1979-07-24 12:20:36.180 ,7,1,0.,12.0,0.,12.0,0.,12.0,0.,12.0
1979-07-24 12:20:48.180 ,4,1,0.,12.0,0.,12.0,0.,12.0,0.,12.0
1979-07-24 12:21:00.180 ,4,1,0.,12.0,0.,12.0,0.,12.0,0.,12.0
1979-07-24 12:21:12.180 ,0,1,0.,12.0,0.,12.0,0.,12.0,0.,12.0
1979-07-24 12:21:24.180 ,0,1,0.,12.0,0.,12.0,0.,12.0,0.,12.0
1979-07-24 12:21:36.180 ,3,1,0.,12.0,0.,12.0,0.,12.0,0.,12.0
1979-07-24 12:21:48.180 ,3,1,0.,12.0,0.,12.0,0.,12.0,0.,12.0
1979-07-24 12:22:00.180 ,7,1,0.,12.0,0.,12.0,0.,12.0,0.,12.0
1979-07-24 12:22:12.180 ,7,1,0.,12.0,0.,12.0,0.,12.0,0.,12.0
1979-07-24 12:22:24.180 ,4,1,0.,12.0,0.,12.0,0.,12.0,0.,12.0
1979-07-24 12:22:36.180 ,4,1,0.,12.0,0.,12.0,0.,12.0,0.,12.0
1979-07-24 12:22:48.180 ,0,1,0.,12.0,0.,12.0,0.,12.0,0.,12.0
1979-07-24 12:23:00.180 ,0,1,0.,12.0,0.,12.0,0.,12.0,0.,12.0
1979-07-24 12:23:12.180 ,3,1,0.,12.0,0.,12.0,0.,12.0,0.,12.0
1979-07-24 12:23:24.180 ,3,1,1.,12.0,0.,12.0,0.,12.0,0.,12.0
1979-07-24 12:23:36.180 ,7,1,0.,12.0,0.,12.0,0.,12.0,0.,12.0
1979-07-24 12:23:48.180 ,7,1,0.,12.0,0.,12.0,0.,12.0,0.,12.0
1979-07-24 12:24:00.180 ,4,1,0.,12.0,0.,12.0,0.,12.0,0.,12.0
1979-07-24 12:24:12.180 ,4,1,0.,12.0,0.,12.0,0.,12.0,0.,12.0
1979-07-24 12:24:24.180 ,0,1,0.,12.0,0.,12.0,0.,12.0,0.,12.0
1979-07-24 12:24:36.180 ,0,1,0.,12.0,0.,12.0,0.,12.0,0.,12.0
1979-07-24 12:24:48.180 ,3,1,0.,12.0,0.,12.0,0.,12.0,0.,12.0
1979-07-24 12:25:00.180 ,3,1,0.,12.0,0.,12.0,0.,12.0,0.,12.0
1979-07-24 12:25:12.180 ,7,1,0.,12.0,0.,12.0,0.,12.0,0.,12.0
1979-07-24 12:25:24.180 ,7,1,0.,12.0,0.,12.0,0.,12.0,0.,12.0
1979-07-24 12:26:24.180 ,0,0,0.,12.0,0.,12.0,0.,12.0,0.,12.0
1979-07-24 12:26:36.180 ,0,0,0.,12.0,0.,12.0,0.,12.0,0.,12.0
1979-07-24 12:26:48.180 ,7,1,0.,12.0,0.,12.0,0.,12.0,0.,12.0
1979-07-24 12:27:00.180 ,7,1,0.,12.0,0.,12.0,0.,12.0,0.,12.0
1979-07-24 12:27:12.180 ,4,1,0.,12.0,0.,12.0,0.,12.0,0.,12.0
1979-07-24 12:27:24.180 ,4,1,0.,12.0,0.,12.0,0.,12.0,0.,12.0
1979-07-24 12:27:36.180 ,0,1,0.,12.0,0.,12.0,0.,12.0,0.,12.0
1979-07-24 12:27:48.180 ,0,1,0.,12.0,0.,12.0,0.,12.0,0.,12.0
1979-07-24 12:28:00.180 ,3,1,0.,12.0,0.,12.0,0.,12.0,0.,12.0
1979-07-24 12:28:12.180 ,3,1,0.,12.0,0.,12.0,0.,12.0,0.,12.0
1979-07-24 12:28:24.180 ,7,1,0.,12.0,0.,12.0,0.,12.0,0.,12.0
1979-07-24 12:28:36.180 ,7,1,0.,12.0,0.,12.0,0.,12.0,0.,12.0
1979-07-24 12:28:48.180 ,4,1,0.,12.0,0.,12.0,0.,12.0,0.,12.0
1979-07-24 12:29:00.180 ,4,1,0.,12.0,0.,12.0,0.,12.0,0.,12.0
1979-07-24 12:29:12.180 ,0,1,0.,12.0,0.,12.0,0.,12.0,0.,12.0
1979-07-24 12:29:24.180 ,0,1,0.,12.0,0.,12.0,0.,12.0,0.,12.0
1979-07-24 12:29:36.180 ,0,0,0.,12.0,0.,12.0,0.,12.0,0.,12.0
1979-07-24 12:29:48.180 ,0,0,0.,12.0,0.,12.0,0.,12.0,0.,12.0
1979-07-24 12:30:00.180 ,0,0,0.,12.0,0.,12.0,0.,12.0,0.,12.0
1979-07-24 12:30:12.180 ,0,0,0.,12.0,0.,12.0,0.,12.0,0.,12.0
1979-07-24 12:30:24.180 ,5,1,0.,12.0,0.,12.0,0.,12.0,0.,12.0
1979-07-24 12:30:36.180 ,5,1,0.,12.0,0.,12.0,0.,12.0,0.,12.0
1979-07-24 12:30:48.180 ,5,0,0.,12.0,0.,12.0,0.,12.0,0.,12.0
1979-07-24 12:31:00.180 ,5,0,0.,12.0,0.,12.0,0.,12.0,0.,12.0
1979-07-24 12:31:12.180 ,4,1,0.,12.0,0.,12.0,0.,12.0,0.,12.0
1979-07-24 12:31:24.180 ,4,1,0.,12.0,0.,12.0,0.,12.0,0.,12.0
1979-07-24 12:31:36.180 ,4,0,0.,12.0,0.,12.0,0.,12.0,0.,12.0
1979-07-24 12:31:48.180 ,4,0,0.,12.0,0.,12.0,0.,12.0,0.,12.0
1979-07-24 12:32:00.180 ,3,1,0.,12.0,0.,12.0,0.,12.0,0.,12.0
1979-07-24 12:32:12.180 ,3,1,0.,12.0,0.,12.0,0.,12.0,0.,12.0
1979-07-24 12:32:24.180 ,3,0,0.,12.0,0.,12.0,0.,12.0,0.,12.0
1979-07-24 12:32:36.180 ,3,0,0.,12.0,0.,12.0,0.,12.0,0.,12.0
1979-07-24 12:32:48.180 ,2,1,0.,12.0,0.,12.0,0.,12.0,1.,12.0
1979-07-24 12:33:00.180 ,2,1,0.,12.0,0.,12.0,0.,12.0,0.,12.0
1979-07-24 12:33:12.180 ,2,0,0.,12.0,0.,12.0,0.,12.0,0.,12.0
1979-07-24 12:33:24.180 ,2,0,0.,12.0,0.,12.0,0.,12.0,0.,12.0
1979-07-24 12:33:36.180 ,1,1,0.,12.0,0.,12.0,0.,12.0,0.,12.0
1979-07-24 12:33:48.180 ,1,1,0.,12.0,0.,12.0,0.,12.0,0.,12.0
1979-07-24 12:34:00.180 ,1,0,0.,12.0,0.,12.0,0.,12.0,0.,12.0
1979-07-24 12:34:12.180 ,1,0,0.,12.0,0.,12.0,0.,12.0,0.,12.0
1979-07-24 12:34:24.180 ,0,1,0.,12.0,0.,12.0,0.,12.0,0.,12.0
1979-07-24 12:34:36.180 ,0,1,0.,12.0,0.,12.0,0.,12.0,0.,12.0
1979-07-24 12:34:48.180 ,0,0,0.,12.0,0.,12.0,0.,12.0,0.,12.0
1979-07-24 12:35:00.180 ,0,0,0.,12.0,0.,12.0,0.,12.0,0.,12.0
1979-07-24 12:35:12.180 ,0,1,0.,12.0,0.,12.0,0.,12.0,0.,12.0
1979-07-24 12:35:24.180 ,0,1,0.,12.0,0.,12.0,0.,12.0,0.,12.0
1979-07-24 12:35:36.180 ,0,0,0.,12.0,0.,12.0,0.,12.0,0.,12.0
1979-07-24 12:35:48.180 ,0,0,0.,12.0,0.,12.0,0.,12.0,0.,12.0
1979-07-24 12:36:00.180 ,1,1,1.,12.0,0.,12.0,0.,12.0,1.,12.0
1979-07-24 12:36:12.180 ,1,1,0.,12.0,0.,12.0,0.,12.0,0.,12.0
1979-07-24 12:36:24.180 ,1,0,0.,12.0,0.,12.0,0.,12.0,0.,12.0
1979-07-24 12:36:36.180 ,1,0,1.,12.0,0.,12.0,0.,12.0,0.,12.0
1979-07-24 12:36:48.180 ,2,1,0.,12.0,0.,12.0,0.,12.0,0.,12.0
1979-07-24 12:37:00.180 ,2,1,0.,12.0,0.,12.0,0.,12.0,0.,12.0
1979-07-24 12:37:12.180 ,2,0,0.,12.0,0.,12.0,0.,12.0,0.,12.0
1979-07-24 12:37:24.180 ,2,0,0.,12.0,0.,12.0,0.,12.0,0.,12.0
1979-07-24 12:37:36.180 ,3,1,0.,12.0,0.,12.0,0.,12.0,0.,12.0
1979-07-24 12:37:48.180 ,3,1,0.,12.0,0.,12.0,0.,12.0,0.,12.0
1979-07-24 12:38:00.180 ,3,0,0.,12.0,0.,12.0,0.,12.0,0.,12.0
1979-07-24 12:38:12.180 ,3,0,0.,12.0,0.,12.0,0.,12.0,0.,12.0
1979-07-24 12:38:24.180 ,4,1,0.,12.0,0.,12.0,0.,12.0,0.,12.0
1979-07-24 12:38:36.180 ,4,1,0.,12.0,0.,12.0,0.,12.0,0.,12.0
1979-07-24 12:38:48.180 ,4,0,0.,12.0,0.,12.0,0.,12.0,0.,12.0
1979-07-24 12:39:00.180 ,4,0,0.,12.0,0.,12.0,0.,12.0,0.,12.0
1979-07-24 12:39:12.180 ,5,1,0.,12.0,0.,12.0,0.,12.0,0.,12.0
1979-07-24 12:39:24.180 ,5,1,0.,12.0,0.,12.0,0.,12.0,0.,12.0
1979-07-24 12:39:36.180 ,5,0,0.,12.0,0.,12.0,0.,12.0,0.,12.0
1979-07-24 12:39:48.180 ,5,0,0.,12.0,0.,12.0,0.,12.0,0.,12.0
1979-07-24 12:40:00.180 ,6,1,1.,12.0,0.,12.0,0.,12.0,0.,12.0
1979-07-24 12:40:12.180 ,6,1,0.,12.0,0.,12.0,0.,12.0,0.,12.0
1979-07-24 12:40:24.180 ,6,0,0.,12.0,0.,12.0,0.,12.0,0.,12.0
1979-07-24 12:40:36.180 ,6,0,0.,12.0,0.,12.0,0.,12.0,0.,12.0
1979-07-24 12:40:48.180 ,7,1,0.,12.0,0.,12.0,0.,12.0,0.,12.0
1979-07-24 12:41:00.180 ,7,1,0.,12.0,0.,12.0,0.,12.0,0.,12.0
1979-07-24 12:41:12.180 ,7,0,0.,12.0,0.,12.0,0.,12.0,0.,12.0
1979-07-24 12:41:24.180 ,7,0,0.,12.0,0.,12.0,0.,12.0,0.,12.0
1979-07-24 12:41:36.180 ,7,1,0.,12.0,0.,12.0,0.,12.0,0.,12.0
1979-07-24 12:41:48.180 ,7,1,0.,12.0,0.,12.0,0.,12.0,0.,12.0
1979-07-24 12:42:00.180 ,7,0,0.,12.0,0.,12.0,0.,12.0,0.,12.0
1979-07-24 12:42:12.180 ,7,0,0.,12.0,0.,12.0,0.,12.0,0.,12.0
1979-07-24 12:42:24.180 ,6,1,0.,12.0,0.,12.0,0.,12.0,0.,12.0
1979-07-24 12:42:36.180 ,6,1,0.,12.0,0.,12.0,0.,12.0,0.,12.0
1979-07-24 12:42:48.180 ,6,0,0.,12.0,0.,12.0,0.,12.0,0.,12.0
1979-07-24 12:43:00.180 ,6,0,0.,12.0,0.,12.0,0.,12.0,0.,12.0
1979-07-24 12:43:12.180 ,5,1,0.,12.0,0.,12.0,0.,12.0,0.,12.0
1979-07-24 12:43:24.180 ,5,1,0.,12.0,0.,12.0,0.,12.0,0.,12.0
1979-07-24 12:43:36.180 ,5,0,0.,12.0,0.,12.0,0.,12.0,0.,12.0
1979-07-24 12:43:48.180 ,5,0,0.,12.0,0.,12.0,0.,12.0,0.,12.0
1979-07-24 12:44:00.180 ,4,1,0.,12.0,0.,12.0,0.,12.0,0.,12.0
1979-07-24 12:44:12.180 ,4,1,0.,12.0,0.,12.0,0.,12.0,0.,12.0
1979-07-24 12:44:24.180 ,4,0,0.,12.0,0.,12.0,0.,12.0,0.,12.0
1979-07-24 12:44:36.180 ,4,0,0.,12.0,0.,12.0,0.,12.0,0.,12.0
1979-07-24 12:44:48.180 ,3,1,0.,12.0,0.,12.0,0.,12.0,0.,12.0
1979-07-24 12:45:00.180 ,3,1,0.,12.0,0.,12.0,0.,12.0,0.,12.0
1979-07-24 12:45:12.180 ,3,0,0.,12.0,0.,12.0,0.,12.0,0.,12.0
1979-07-24 12:45:24.180 ,3,0,0.,12.0,0.,12.0,0.,12.0,0.,12.0
1979-07-24 12:45:36.180 ,2,1,0.,12.0,0.,12.0,0.,12.0,0.,12.0
1979-07-24 12:45:48.180 ,2,1,0.,12.0,0.,12.0,0.,12.0,0.,12.0
1979-07-24 12:46:00.180 ,2,0,0.,12.0,0.,12.0,0.,12.0,0.,12.0
1979-07-24 12:46:12.180 ,2,0,0.,12.0,0.,12.0,0.,12.0,0.,12.0
1979-07-24 12:46:24.180 ,1,1,0.,12.0,0.,12.0,0.,12.0,0.,12.0
1979-07-24 12:46:36.180 ,1,1,1.,12.0,0.,12.0,0.,12.0,0.,12.0
1979-07-24 12:46:48.180 ,1,0,0.,12.0,0.,12.0,0.,12.0,0.,12.0
1979-07-24 12:47:00.180 ,1,0,0.,12.0,0.,12.0,0.,12.0,0.,12.0
1979-07-24 12:47:12.180 ,0,1,0.,12.0,0.,12.0,0.,12.0,0.,12.0
1979-07-24 12:47:24.180 ,0,1,0.,12.0,0.,12.0,0.,12.0,0.,12.0
1979-07-24 12:47:36.180 ,0,0,0.,12.0,0.,12.0,0.,12.0,0.,12.0
1979-07-24 12:47:48.180 ,0,0,0.,12.0,0.,12.0,0.,12.0,0.,12.0
1979-07-24 12:48:00.180 ,0,1,0.,12.0,0.,12.0,0.,12.0,0.,12.0
1979-07-24 12:48:12.180 ,0,1,0.,12.0,0.,12.0,0.,12.0,0.,12.0
1979-07-24 12:48:24.180 ,0,0,0.,12.0,0.,12.0,0.,12.0,0.,12.0
1979-07-24 12:48:36.180 ,0,0,0.,12.0,0.,12.0,0.,12.0,0.,12.0
1979-07-24 12:48:48.180 ,1,1,0.,12.0,0.,12.0,0.,12.0,0.,12.0
1979-07-24 12:49:00.180 ,1,1,1.,12.0,0.,12.0,0.,12.0,0.,12.0
1979-07-24 12:49:12.180 ,1,0,0.,12.0,0.,12.0,0.,12.0,0.,12.0
1979-07-24 12:49:24.180 ,1,0,0.,12.0,0.,12.0,0.,12.0,0.,12.0
1979-07-24 12:49:36.180 ,2,1,0.,12.0,0.,12.0,0.,12.0,0.,12.0
1979-07-24 12:49:48.180 ,2,1,0.,12.0,0.,12.0,0.,12.0,0.,12.0
1979-07-24 12:50:00.180 ,2,0,0.,12.0,0.,12.0,0.,12.0,0.,12.0
1979-07-24 12:50:12.180 ,2,0,0.,12.0,0.,12.0,0.,12.0,0.,12.0
1979-07-24 12:50:24.180 ,3,1,0.,12.0,0.,12.0,0.,12.0,0.,12.0
1979-07-24 12:50:36.180 ,3,1,0.,12.0,0.,12.0,0.,12.0,0.,12.0
1979-07-24 12:50:48.180 ,3,0,0.,12.0,0.,12.0,0.,12.0,0.,12.0
1979-07-24 12:51:00.180 ,3,0,0.,12.0,0.,12.0,0.,12.0,0.,12.0
1979-07-24 12:51:12.180 ,4,1,0.,12.0,0.,12.0,0.,12.0,0.,12.0
1979-07-24 12:51:24.180 ,4,1,0.,12.0,0.,12.0,0.,12.0,0.,12.0
1979-07-24 12:51:36.180 ,4,0,0.,12.0,0.,12.0,0.,12.0,0.,12.0
1979-07-24 12:51:48.180 ,4,0,0.,12.0,0.,12.0,0.,12.0,0.,12.0
1979-07-24 12:52:48.180 ,0,0,0.,12.0,0.,12.0,0.,12.0,0.,12.0
1979-07-24 12:53:00.180 ,0,0,0.,12.0,0.,12.0,0.,12.0,0.,12.0
1979-07-24 12:53:12.180 ,0,0,0.,12.0,0.,12.0,0.,12.0,0.,12.0
1979-07-24 12:53:24.180 ,0,0,0.,12.0,0.,12.0,0.,12.0,0.,12.0
1979-07-24 12:53:36.180 ,7,1,0.,12.0,0.,12.0,0.,12.0,0.,12.0
1979-07-24 12:53:48.180 ,7,1,0.,12.0,0.,12.0,0.,12.0,0.,12.0
1979-07-24 12:54:00.180 ,7,0,0.,12.0,0.,12.0,0.,12.0,0.,12.0
1979-07-24 12:54:12.180 ,7,0,0.,12.0,0.,12.0,0.,12.0,0.,12.0
1979-07-24 12:54:24.180 ,7,1,0.,12.0,0.,12.0,0.,12.0,0.,12.0
1979-07-24 12:54:36.180 ,7,1,0.,12.0,0.,12.0,0.,12.0,0.,12.0
1979-07-24 12:54:48.180 ,7,0,0.,12.0,0.,12.0,0.,12.0,0.,12.0
1979-07-24 12:55:00.180 ,7,0,0.,12.0,0.,12.0,0.,12.0,0.,12.0
1979-07-24 12:55:12.180 ,6,1,0.,12.0,0.,12.0,0.,12.0,0.,12.0
1979-07-24 12:55:24.180 ,6,1,0.,12.0,0.,12.0,0.,12.0,0.,12.0
1979-07-24 12:55:36.180 ,6,0,0.,12.0,0.,12.0,0.,12.0,0.,12.0
1979-07-24 12:55:48.180 ,6,0,0.,12.0,0.,12.0,0.,12.0,0.,12.0
1979-07-24 12:56:00.180 ,5,1,0.,12.0,0.,12.0,0.,12.0,0.,12.0
1979-07-24 12:56:12.180 ,5,1,0.,12.0,0.,12.0,0.,12.0,0.,12.0
1979-07-24 12:56:24.180 ,5,0,0.,12.0,0.,12.0,0.,12.0,0.,12.0
1979-07-24 12:56:36.180 ,5,0,0.,12.0,0.,12.0,0.,12.0,0.,12.0
1979-07-24 12:56:48.180 ,4,1,0.,12.0,0.,12.0,0.,12.0,0.,12.0
1979-07-24 12:57:00.180 ,4,1,0.,12.0,0.,12.0,0.,12.0,0.,12.0
1979-07-24 12:57:12.180 ,4,0,0.,12.0,0.,12.0,0.,12.0,0.,12.0
1979-07-24 12:57:24.180 ,4,0,0.,12.0,0.,12.0,0.,12.0,0.,12.0
1979-07-24 12:57:36.180 ,3,1,0.,12.0,0.,12.0,0.,12.0,0.,12.0
1979-07-24 12:57:48.180 ,3,1,0.,12.0,0.,12.0,0.,12.0,0.,12.0
1979-07-24 12:58:00.180 ,3,0,0.,12.0,0.,12.0,0.,12.0,0.,12.0
1979-07-24 12:58:12.180 ,3,0,0.,12.0,0.,12.0,0.,12.0,1.,12.0
1979-07-24 12:58:24.180 ,2,1,0.,12.0,0.,12.0,0.,12.0,0.,12.0
1979-07-24 12:58:36.180 ,2,1,0.,12.0,0.,12.0,0.,12.0,0.,12.0
1979-07-24 12:58:48.180 ,2,0,0.,12.0,0.,12.0,0.,12.0,0.,12.0
1979-07-24 12:59:00.180 ,2,0,0.,12.0,0.,12.0,0.,12.0,0.,12.0
1979-07-24 12:59:12.180 ,1,1,0.,12.0,0.,12.0,0.,12.0,0.,12.0
1979-07-24 12:59:24.180 ,1,1,0.,12.0,0.,12.0,0.,12.0,0.,12.0
1979-07-24 12:59:36.180 ,1,0,0.,12.0,0.,12.0,0.,12.0,0.,12.0
1979-07-24 12:59:48.180 ,1,0,0.,12.0,0.,12.0,0.,12.0,0.,12.0
1979-07-24 13:00:00.180 ,0,1,1.,12.0,0.,12.0,0.,12.0,0.,12.0
1979-07-24 13:00:12.180 ,0,1,0.,12.0,0.,12.0,0.,12.0,0.,12.0
1979-07-24 13:00:24.180 ,0,0,1.,12.0,0.,12.0,0.,12.0,0.,12.0
1979-07-24 13:00:36.180 ,0,0,0.,12.0,0.,12.0,0.,12.0,0.,12.0
1979-07-24 13:00:48.180 ,0,1,0.,12.0,0.,12.0,0.,12.0,0.,12.0
1979-07-24 13:01:00.180 ,0,1,0.,12.0,0.,12.0,0.,12.0,0.,12.0
1979-07-24 13:01:12.180 ,0,0,0.,12.0,0.,12.0,0.,12.0,0.,12.0
1979-07-24 13:01:24.180 ,0,0,0.,12.0,0.,12.0,0.,12.0,0.,12.0
1979-07-24 13:01:36.180 ,1,1,0.,12.0,0.,12.0,0.,12.0,0.,12.0
1979-07-24 13:01:48.180 ,1,1,0.,12.0,0.,12.0,0.,12.0,0.,12.0
1979-07-24 13:02:00.180 ,1,0,0.,12.0,0.,12.0,0.,12.0,0.,12.0
1979-07-24 13:02:12.180 ,1,0,0.,12.0,0.,12.0,0.,12.0,0.,12.0
1979-07-24 13:02:24.180 ,2,1,0.,12.0,0.,12.0,0.,12.0,0.,12.0
1979-07-24 13:02:36.180 ,2,1,0.,12.0,0.,12.0,0.,12.0,0.,12.0
1979-07-24 13:02:48.180 ,2,0,0.,12.0,0.,12.0,0.,12.0,0.,12.0
1979-07-24 13:03:00.180 ,2,0,0.,12.0,0.,12.0,0.,12.0,0.,12.0
1979-07-24 13:03:12.180 ,3,1,0.,12.0,0.,12.0,0.,12.0,0.,12.0
1979-07-24 13:03:24.180 ,3,1,0.,12.0,0.,12.0,0.,12.0,0.,12.0
1979-07-24 13:03:36.180 ,3,0,0.,12.0,0.,12.0,0.,12.0,0.,12.0
1979-07-24 13:03:48.180 ,3,0,0.,12.0,0.,12.0,0.,12.0,0.,12.0
1979-07-24 13:04:00.180 ,4,1,0.,12.0,0.,12.0,0.,12.0,0.,12.0
1979-07-24 13:04:12.180 ,4,1,1.,12.0,0.,12.0,0.,12.0,0.,12.0
1979-07-24 13:04:24.180 ,4,0,0.,12.0,0.,12.0,0.,12.0,0.,12.0
1979-07-24 13:04:36.180 ,4,0,0.,12.0,0.,12.0,0.,12.0,0.,12.0
1979-07-24 13:04:48.180 ,5,1,0.,12.0,0.,12.0,0.,12.0,0.,12.0
1979-07-24 13:05:00.180 ,5,1,0.,12.0,0.,12.0,0.,12.0,0.,12.0
1979-07-24 13:05:12.180 ,5,0,0.,12.0,0.,12.0,0.,12.0,0.,12.0
1979-07-24 13:05:24.180 ,5,0,0.,12.0,0.,12.0,0.,12.0,0.,12.0
1979-07-24 13:05:36.180 ,6,1,0.,12.0,0.,12.0,0.,12.0,0.,12.0
1979-07-24 13:05:48.180 ,6,1,0.,12.0,0.,12.0,0.,12.0,0.,12.0
1979-07-24 13:06:00.180 ,6,0,0.,12.0,0.,12.0,0.,12.0,0.,12.0
1979-07-24 13:06:12.180 ,6,0,0.,12.0,0.,12.0,0.,12.0,0.,12.0
1979-07-24 13:06:24.180 ,7,0,0.,12.0,0.,12.0,0.,12.0,0.,12.0
1979-07-24 13:06:36.180 ,7,0,0.,12.0,0.,12.0,0.,12.0,0.,12.0
1979-07-24 13:06:48.180 ,7,0,0.,12.0,0.,12.0,0.,12.0,0.,12.0
1979-07-24 13:07:00.180 ,7,0,0.,12.0,0.,12.0,0.,12.0,0.,12.0
1979-07-24 13:07:12.180 ,0,0,0.,12.0,0.,12.0,0.,12.0,0.,12.0
1979-07-24 13:07:24.180 ,0,0,0.,12.0,0.,12.0,0.,12.0,0.,12.0
1979-07-24 13:07:36.180 ,0,1,0.,12.0,0.,12.0,0.,12.0,0.,12.0
1979-07-24 13:07:48.180 ,0,1,0.,12.0,0.,12.0,0.,12.0,0.,12.0
1979-07-24 13:08:00.180 ,3,1,0.,12.0,0.,12.0,0.,12.0,0.,12.0
1979-07-24 13:08:12.180 ,3,1,0.,12.0,0.,12.0,0.,12.0,0.,12.0
1979-07-24 13:08:24.180 ,7,1,0.,12.0,0.,12.0,0.,12.0,0.,12.0
1979-07-24 13:08:36.180 ,7,1,0.,12.0,0.,12.0,0.,12.0,0.,12.0
1979-07-24 13:08:48.180 ,4,1,0.,12.0,0.,12.0,0.,12.0,0.,12.0
1979-07-24 13:09:00.180 ,4,1,0.,12.0,0.,12.0,0.,12.0,0.,12.0
1979-07-24 13:09:12.180 ,0,1,0.,12.0,0.,12.0,0.,12.0,0.,12.0
1979-07-24 13:09:24.180 ,0,1,0.,12.0,0.,12.0,0.,12.0,0.,12.0
1979-07-24 13:09:36.180 ,3,1,0.,12.0,0.,12.0,0.,12.0,0.,12.0
1979-07-24 13:09:48.180 ,3,1,0.,12.0,0.,12.0,0.,12.0,0.,12.0
1979-07-24 13:10:00.180 ,7,1,0.,12.0,0.,12.0,0.,12.0,0.,12.0
1979-07-24 13:10:12.180 ,7,1,0.,12.0,0.,12.0,0.,12.0,0.,12.0
1979-07-24 13:10:24.180 ,4,1,0.,12.0,0.,12.0,0.,12.0,0.,12.0
1979-07-24 13:10:36.180 ,4,1,0.,12.0,0.,12.0,0.,12.0,0.,12.0
1979-07-24 13:10:48.180 ,0,1,0.,12.0,0.,12.0,0.,12.0,0.,12.0
1979-07-24 13:11:00.180 ,0,1,0.,12.0,0.,12.0,0.,12.0,0.,12.0
1979-07-24 13:11:12.180 ,3,1,,0,,0,,0,,0
1979-07-24 13:11:24.180 ,3,1,0.,12.0,0.,12.0,0.,12.0,0.,12.0
1979-07-24 13:11:36.180 ,7,1,0.,12.0,0.,12.0,0.,12.0,0.,12.0
1979-07-24 13:11:48.180 ,7,1,0.,12.0,0.,12.0,0.,12.0,0.,12.0
1979-07-24 13:12:00.180 ,4,1,0.,12.0,0.,12.0,0.,12.0,0.,12.0
1979-07-24 13:12:12.180 ,4,1,0.,12.0,0.,12.0,0.,12.0,0.,12.0
1979-07-24 13:12:24.180 ,0,1,0.,12.0,0.,12.0,0.,12.0,0.,12.0
1979-07-24 13:12:36.180 ,0,1,0.,12.0,0.,12.0,0.,12.0,0.,12.0
1979-07-24 13:12:48.180 ,3,1,0.,12.0,0.,12.0,0.,12.0,0.,12.0
1979-07-24 13:13:00.180 ,3,1,0.,12.0,0.,12.0,0.,12.0,0.,12.0
1979-07-24 13:13:12.180 ,7,1,0.,12.0,0.,12.0,0.,12.0,0.,12.0
1979-07-24 13:13:24.180 ,7,1,0.,12.0,0.,12.0,0.,12.0,0.,12.0
1979-07-24 13:13:36.180 ,4,1,0.,12.0,0.,12.0,0.,12.0,0.,12.0
1979-07-24 13:13:48.180 ,4,1,0.,12.0,0.,12.0,0.,12.0,0.,12.0
1979-07-24 13:14:00.180 ,0,1,0.,12.0,0.,12.0,0.,12.0,0.,12.0
1979-07-24 13:14:12.180 ,0,1,0.,12.0,0.,12.0,0.,12.0,0.,12.0
1979-07-24 13:14:24.180 ,3,1,0.,12.0,0.,12.0,0.,12.0,0.,12.0
1979-07-24 13:14:36.180 ,3,1,0.,12.0,0.,12.0,0.,12.0,0.,12.0
1979-07-24 13:14:48.180 ,7,1,0.,12.0,0.,12.0,0.,12.0,0.,12.0
1979-07-24 13:15:00.180 ,7,1,0.,12.0,0.,12.0,0.,12.0,0.,12.0
1979-07-24 13:15:12.180 ,4,1,0.,12.0,0.,12.0,0.,12.0,0.,12.0
1979-07-24 13:15:24.180 ,4,1,0.,12.0,0.,12.0,0.,12.0,0.,12.0
1979-07-24 13:15:36.180 ,0,1,0.,12.0,0.,12.0,0.,12.0,0.,12.0
1979-07-24 13:15:48.180 ,0,1,0.,12.0,0.,12.0,0.,12.0,0.,12.0
1979-07-24 13:16:00.180 ,3,1,0.,12.0,0.,12.0,0.,12.0,0.,12.0
1979-07-24 13:16:12.180 ,3,1,0.,12.0,0.,12.0,0.,12.0,0.,12.0
1979-07-24 13:16:24.180 ,7,1,0.,12.0,0.,12.0,0.,12.0,0.,12.0
1979-07-24 13:16:36.180 ,7,1,0.,12.0,0.,12.0,0.,12.0,0.,12.0
1979-07-24 13:16:48.180 ,4,1,0.,12.0,0.,12.0,0.,12.0,0.,12.0
1979-07-24 13:17:00.180 ,4,1,0.,12.0,0.,12.0,0.,12.0,0.,12.0
1979-07-24 13:17:12.180 ,0,1,0.,12.0,0.,12.0,0.,12.0,0.,12.0
1979-07-24 13:17:24.180 ,0,1,0.,12.0,0.,12.0,0.,12.0,0.,12.0
1979-07-24 13:17:36.180 ,0,0,0.,12.0,0.,12.0,0.,12.0,0.,12.0
1979-07-24 13:17:48.180 ,0,0,0.,12.0,0.,12.0,0.,12.0,0.,12.0
1979-07-24 13:18:00.180 ,0,0,0.,12.0,0.,12.0,0.,12.0,0.,12.0
1979-07-24 13:18:12.180 ,0,0,0.,12.0,0.,12.0,0.,12.0,0.,12.0
1979-07-24 13:18:24.180 ,5,1,0.,12.0,0.,12.0,0.,12.0,0.,12.0
1979-07-24 13:18:36.180 ,5,1,0.,12.0,0.,12.0,0.,12.0,0.,12.0
1979-07-24 13:18:48.180 ,5,0,0.,12.0,0.,12.0,0.,12.0,0.,12.0
1979-07-24 13:19:00.180 ,5,0,0.,12.0,0.,12.0,0.,12.0,0.,12.0